KC5AV Weather Reports


Display with metric or nautical units.
time (UTC)temp
F
wind
direction
speed
MPH
gust
MPH
rain 1hr
in
rain 24hr
in
rain mn
in
humidity
%
barometer
mb
20260509223940 83 25 0.0 3.0 0.00 0.21 0.21 74 1009.8
20260509223437 84 344 1.0 3.0 0.00 0.21 0.21 72 1009.8
20260509222934 84 11 1.0 5.0 0.00 0.21 0.21 70 1010.0
20260509222429 84 156 3.0 3.0 0.00 0.21 0.21 72 1009.8
20260509221925 83 160 0.0 2.0 0.00 0.21 0.21 72 1009.9
20260509221422 82 11 2.0 4.0 0.00 0.21 0.21 72 1009.9
20260509220918 82 144 0.0 2.0 0.00 0.21 0.21 73 1009.8
20260509220414 84 126 2.0 3.0 0.00 0.21 0.21 71 1009.8
20260509215910 84 14 2.0 3.0 0.00 0.21 0.21 71 1009.7
20260509215406 83 355 0.0 4.0 0.00 0.21 0.21 72 1009.9
20260509214904 83 12 2.0 5.0 0.00 0.21 0.21 72 1010.0
20260509214401 83 29 2.0 6.0 0.00 0.21 0.21 72 1010.0
20260509213858 82 304 1.0 4.0 0.00 0.21 0.21 76 1010.1
20260509213354 82 357 2.0 4.0 0.00 0.21 0.21 74 1010.3
20260509212851 83 19 2.0 4.0 0.00 0.21 0.21 73 1010.3
20260509212349 82 17 2.0 2.0 0.00 0.21 0.21 76 1010.3
20260509211844 82 27 2.0 2.0 0.00 0.21 0.21 74 1010.3
20260509211340 84 152 2.0 3.0 0.00 0.21 0.21 71 1010.2
20260509210837 87 70 1.0 4.0 0.00 0.21 0.21 66 1010.2
20260509210334 87 345 2.0 3.0 0.00 0.21 0.21 68 1010.3
20260509205834 86 317 2.0 3.0 0.00 0.21 0.21 67 1010.1
20260509205329 85 331 1.0 2.0 0.00 0.21 0.21 71 1010.4
20260509204825 84 129 0.0 3.0 0.00 0.21 0.21 72 1010.5
20260509204322 84 6 0.0 5.0 0.00 0.21 0.21 71 1010.5
20260509203819 84 75 2.0 4.0 0.00 0.21 0.21 71 1010.6
20260509203315 82 76 2.0 5.0 0.00 0.21 0.21 74 1010.6
20260509202811 82 132 2.0 5.0 0.00 0.21 0.21 76 1010.6
20260509202308 82 5 2.0 2.0 0.00 0.21 0.21 75 1010.6
20260509201807 83 73 4.0 5.0 0.00 0.21 0.21 73 1010.7
20260509201304 82 99 2.0 5.0 0.00 0.21 0.21 77 1010.7
20260509200800 81 316 1.0 5.0 0.00 0.21 0.21 75 1010.8
20260509200255 80 118 2.0 3.0 0.00 0.21 0.21 77 1010.6
20260509195752 79 242 0.0 4.0 0.00 0.21 0.21 80 1010.8
20260509195247 79 21 2.0 3.0 0.00 0.21 0.21 80 1011.1
20260509194742 79 26 2.0 4.0 0.00 0.21 0.21 80 1011.1
20260509194238 79 94 2.0 2.0 0.00 0.21 0.21 82 1011.1
20260509193735 80 88 2.0 3.0 0.00 0.21 0.21 81 1011.0
20260509193235 80 100 1.0 3.0 0.00 0.21 0.21 81 1011.1
20260509192731 82 81 2.0 4.0 0.00 0.21 0.21 77 1011.1
20260509192226 81 53 2.0 2.0 0.00 0.21 0.21 80 1011.1
20260509191722 80 351 2.0 3.0 0.00 0.21 0.21 78 1011.4
20260509191219 81 333 2.0 6.0 0.00 0.21 0.21 78 1011.3
20260509190715 79 0 0.0 3.0 0.00 0.21 0.21 81 1011.4
20260509190212 79 45 0.0 4.0 0.00 0.21 0.21 82 1011.4
20260509185710 78 130 1.0 3.0 0.00 0.21 0.21 84 1011.5
20260509185206 78 214 0.0 2.0 0.00 0.21 0.21 83 1011.6
20260509184703 78 17 1.0 2.0 0.00 0.21 0.21 86 1011.9
20260509184200 77 129 0.0 2.0 0.00 0.21 0.21 87 1011.9
20260509183656 76 67 2.0 3.0 0.00 0.21 0.21 87 1011.9
20260509183152 77 128 1.0 3.0 0.00 0.21 0.21 86 1011.9
20260509182647 76 97 2.0 3.0 0.00 0.21 0.21 87 1011.7
20260509182145 76 89 2.0 3.0 0.00 0.21 0.21 87 1011.8
20260509181643 76 118 0.0 2.0 0.00 0.21 0.21 87 1012.1
20260509181141 76 129 0.0 0.0 0.00 0.21 0.21 88 1012.0
20260509180637 76 110 0.0 1.0 0.00 0.21 0.21 88 1012.2
20260509180133 76 32 0.0 2.0 0.00 0.21 0.21 88 1012.2
20260509175629 75 49 1.0 2.0 0.00 0.21 0.21 88 1012.1
20260509175126 75 205 0.0 2.0 0.00 0.21 0.21 87 1012.1
20260509174622 76 142 0.0 0.0 0.00 0.21 0.21 89 1012.1
20260509174117 75 5 0.0 2.0 0.00 0.21 0.21 89 1012.3
20260509173613 75 48 2.0 2.0 0.00 0.21 0.21 88 1012.1
20260509173109 75 13 0.0 2.0 0.00 0.21 0.21 89 1012.1
20260509172606 75 296 0.0 0.0 0.00 0.21 0.21 91 1012.3
20260509172102 74 159 0.0 0.0 0.00 0.21 0.21 91 1012.4
20260509171558 74 0 0.0 1.0 0.00 0.21 0.21 91 1012.3
20260509171054 74 55 2.0 2.0 0.00 0.21 0.21 91 1012.3
20260509170550 74 38 0.0 3.0 0.00 0.21 0.21 91 1012.3
20260509170047 73 63 0.0 3.0 0.00 0.21 0.21 92 1012.3
20260509165545 73 145 0.0 2.0 0.00 0.21 0.21 92 1012.4
20260509165041 73 129 0.0 2.0 0.00 0.21 0.21 93 1012.2
20260509164537 73 91 2.0 2.0 0.00 0.21 0.21 93 1012.4
20260509164033 73 100 2.0 3.0 0.00 0.21 0.21 94 1012.4
20260509163531 72 108 2.0 3.0 0.00 0.21 0.21 94 1012.3
20260509163026 72 118 0.0 3.0 0.00 0.21 0.21 94 1012.4
20260509162524 72 148 0.0 2.0 0.00 0.21 0.21 94 1012.4
20260509162019 72 20 1.0 1.0 0.00 0.21 0.21 94 1012.3
20260509161516 72 108 1.0 2.0 0.00 0.21 0.21 94 1012.2
20260509161016 72 189 0.0 2.0 0.00 0.21 0.21 94 1012.3
20260509160512 72 109 2.0 2.0 0.00 0.21 0.21 95 1012.2
20260509160008 71 98 2.0 2.0 0.00 0.21 0.21 95 1012.3
20260509155504 71 98 2.0 3.0 0.00 0.21 0.21 95 1012.3
20260509154955 71 57 2.0 3.0 0.00 0.21 0.21 95 1012.2
20260509154451 71 74 1.0 3.0 0.00 0.21 0.21 95 1012.0
20260509153949 71 8 0.0 2.0 0.00 0.21 0.21 96 1011.8
20260509153446 71 68 0.0 2.0 0.00 0.21 0.21 97 1011.9
20260509152943 70 117 0.0 2.0 0.00 0.21 0.21 97 1012.0
20260509152438 70 43 1.0 1.0 0.00 0.21 0.21 97 1012.0
20260509151936 70 142 0.0 0.0 0.00 0.21 0.21 97 1012.0
20260509151432 70 122 0.0 0.0 0.00 0.21 0.21 97 1011.9
20260509150930 70 113 0.0 2.0 0.00 0.21 0.21 98 1011.8
20260509150427 69 37 0.0 1.0 0.00 0.21 0.21 98 1011.9
20260509145926 69 9 1.0 2.0 0.00 0.21 0.21 98 1011.8
20260509145426 69 82 2.0 2.0 0.00 0.21 0.21 98 1011.9
20260509144921 69 43 0.0 0.0 0.00 0.21 0.21 98 1012.0
20260509144418 69 74 2.0 2.0 0.00 0.21 0.21 98 1012.0
20260509143916 69 15 0.0 1.0 0.00 0.21 0.21 98 1012.1
20260509143413 69 294 0.0 0.0 0.00 0.21 0.21 98 1012.2
20260509142909 69 128 2.0 2.0 0.00 0.21 0.21 98 1012.3
20260509142405 69 92 1.0 2.0 0.00 0.21 0.21 98 1012.4
20260509141901 69 111 0.0 2.0 0.00 0.21 0.21 98 1012.4
20260509141358 69 115 0.0 2.0 0.00 0.21 0.21 98 1012.2
20260509140855 69 63 1.0 1.0 0.00 0.21 0.21 98 1012.0
20260509140352 68 77 0.0 2.0 0.00 0.21 0.21 98 1012.3
20260509135850 68 33 1.0 1.0 0.00 0.21 0.21 98 1012.2
20260509135347 68 64 0.0 1.0 0.00 0.21 0.21 98 1012.3
20260509134844 68 89 0.0 2.0 0.00 0.21 0.21 98 1012.4
20260509134342 68 34 1.0 2.0 0.00 0.21 0.21 98 1012.5
20260509133838 68 41 0.0 1.0 0.00 0.21 0.21 98 1012.6
20260509133335 68 48 0.0 1.0 0.00 0.21 0.21 98 1012.4
20260509132834 68 51 0.0 0.0 0.00 0.21 0.21 98 1012.3
20260509132332 68 87 0.0 1.0 0.00 0.21 0.21 98 1012.4
20260509131828 68 98 0.0 2.0 0.00 0.21 0.21 98 1012.3
20260509131325 68 89 0.0 2.0 0.00 0.21 0.21 98 1012.2
20260509130822 68 89 0.0 1.0 0.00 0.21 0.21 98 1012.3
20260509130317 68 51 2.0 2.0 0.00 0.21 0.21 98 1012.4
20260509125814 68 55 0.0 1.0 0.00 0.21 0.21 98 1012.4
20260509125310 68 89 0.0 1.0 0.00 0.21 0.21 98 1012.1
20260509124807 68 85 1.0 2.0 0.00 0.21 0.21 98 1012.1
20260509124303 68 130 0.0 1.0 0.00 0.21 0.21 98 1012.0
20260509123802 68 104 1.0 2.0 0.00 0.21 0.21 98 1012.0
20260509123259 68 132 1.0 2.0 0.00 0.21 0.21 98 1011.7
20260509122754 68 39 1.0 2.0 0.00 0.21 0.21 98 1011.8
20260509122251 68 97 0.0 2.0 0.00 0.21 0.21 98 1011.8
20260509121748 68 76 0.0 2.0 0.00 0.21 0.21 98 1011.7
20260509121246 68 98 1.0 2.0 0.00 0.21 0.21 98 1011.7
20260509120744 68 123 1.0 2.0 0.00 0.21 0.21 98 1011.6
20260509120241 67 117 1.0 1.0 0.00 0.21 0.21 98 1011.7
20260509115739 67 95 1.0 3.0 0.00 0.21 0.21 98 1011.7
20260509115236 67 34 2.0 2.0 0.00 0.21 0.21 98 1011.7
20260509114734 67 4 1.0 2.0 0.00 0.21 0.21 98 1011.5
20260509114233 67 353 1.0 2.0 0.00 0.21 0.21 98 1011.7
20260509113731 67 107 1.0 2.0 0.00 0.21 0.21 98 1011.5
20260509113228 67 28 0.0 2.0 0.00 0.21 0.21 98 1011.6
20260509112725 67 72 1.0 2.0 0.00 0.21 0.21 98 1011.5
20260509112222 68 33 2.0 3.0 0.00 0.21 0.21 98 1011.3
20260509111718 68 25 2.0 3.0 0.00 0.21 0.21 98 1011.3
20260509111215 68 61 1.0 2.0 0.00 0.21 0.21 98 1011.3
20260509110713 68 77 0.0 2.0 0.00 0.21 0.21 98 1010.8
20260509110210 68 95 1.0 2.0 0.00 0.21 0.21 98 1010.8
20260509105707 68 122 0.0 2.0 0.00 0.21 0.21 98 1010.8
20260509105205 68 35 1.0 2.0 0.00 0.21 0.21 98 1010.8
20260509104702 68 113 0.0 2.0 0.00 0.21 0.21 98 1010.8
20260509104159 68 89 0.0 1.0 0.00 0.21 0.21 98 1011.0
20260509103656 68 89 0.0 2.0 0.00 0.21 0.21 98 1010.7
20260509103154 68 89 0.0 1.0 0.00 0.21 0.21 98 1011.1
20260509102652 68 97 2.0 3.0 0.00 0.21 0.21 98 1010.8
20260509102148 68 102 0.0 0.0 0.00 0.21 0.21 98 1011.0
20260509101644 68 37 0.0 0.0 0.00 0.21 0.21 98 1010.8
20260509101142 68 80 1.0 2.0 0.00 0.21 0.21 98 1010.8
20260509100639 67 109 0.0 0.0 0.00 0.21 0.21 98 1011.1
20260509100136 67 37 0.0 0.0 0.00 0.21 0.21 98 1010.8
20260509095632 68 89 0.0 1.0 0.00 0.21 0.21 98 1010.8
20260509095130 67 118 1.0 1.0 0.00 0.21 0.21 98 1011.0
20260509094626 67 50 0.0 0.0 0.00 0.21 0.21 97 1011.1
20260509094123 67 106 1.0 2.0 0.00 0.21 0.21 97 1010.7
20260509093622 68 89 0.0 2.0 0.00 0.21 0.21 97 1010.7
20260509093118 68 39 1.0 2.0 0.00 0.21 0.21 97 1010.6
20260509092616 68 109 0.0 1.0 0.00 0.21 0.21 97 1010.6
20260509092114 68 89 0.0 1.0 0.00 0.21 0.21 97 1010.5
20260509091612 68 315 0.0 0.0 0.00 0.21 0.21 97 1010.9
20260509091108 68 26 0.0 1.0 0.00 0.21 0.21 97 1010.8
20260509090605 68 269 0.0 2.0 0.00 0.21 0.21 97 1010.8
20260509090058 68 98 0.0 2.0 0.00 0.21 0.21 97 1010.9
20260509085554 68 258 0.0 3.0 0.00 0.21 0.21 97 1011.1
20260509085050 67 356 1.0 2.0 0.00 0.21 0.21 97 1010.9
20260509084548 67 311 0.0 2.0 0.00 0.21 0.21 97 1010.9
20260509084045 67 93 0.0 2.0 0.00 0.21 0.21 97 1010.9
20260509083542 67 44 0.0 0.0 0.00 0.21 0.21 97 1011.0
20260509083038 67 37 0.0 2.0 0.00 0.21 0.21 97 1010.9
20260509082536 66 309 0.0 1.0 0.00 0.21 0.21 97 1011.1
20260509082033 66 34 2.0 3.0 0.00 0.21 0.21 97 1010.9
20260509081530 66 32 0.0 3.0 0.00 0.21 0.21 97 1010.8
20260509081027 66 123 0.0 3.0 0.00 0.21 0.21 97 1010.8
20260509080525 66 81 0.0 2.0 0.00 0.21 0.21 96 1010.8
20260509080023 66 251 0.0 3.0 0.00 0.21 0.21 97 1010.8
20260509075520 66 307 0.0 1.0 0.00 0.21 0.21 97 1010.8
20260509075018 66 63 0.0 1.0 0.00 0.21 0.21 97 1010.8
20260509074515 67 39 0.0 2.0 0.00 0.21 0.21 97 1010.8
20260509074011 67 285 1.0 1.0 0.00 0.21 0.21 97 1011.0
20260509073508 67 32 0.0 2.0 0.00 0.21 0.21 97 1010.9
20260509073004 68 76 0.0 2.0 0.00 0.21 0.21 97 1011.3
20260509072501 68 135 0.0 1.0 0.00 0.21 0.21 97 1010.9
20260509071958 68 95 0.0 2.0 0.00 0.21 0.21 97 1011.0
20260509071454 68 293 0.0 3.0 0.00 0.21 0.21 97 1010.9
20260509070952 68 109 3.0 5.0 0.00 0.21 0.21 97 1011.1
20260509070449 68 97 1.0 4.0 0.02 0.21 0.21 96 1010.8
20260509065944 68 139 3.0 5.0 0.00 0.21 0.21 96 1011.0
20260509065441 68 46 1.0 2.0 0.00 0.21 0.21 96 1010.6
20260509064937 68 155 2.0 3.0 0.02 0.21 0.21 96 1011.3
20260509064435 68 181 1.0 4.0 0.07 0.21 0.21 96 1010.8
20260509063932 68 113 2.0 4.0 0.35 0.20 0.20 95 1010.6
20260509063427 68 109 4.0 4.0 0.38 0.19 0.19 95 1010.8
20260509062924 68 89 2.0 2.0 0.26 0.15 0.15 94 1012.1
20260509062422 68 104 0.0 1.0 0.28 0.13 0.13 94 1013.0
20260509061919 69 37 0.0 1.0 0.24 0.09 0.09 93 1013.0
20260509061417 69 49 2.0 2.0 0.47 0.08 0.08 92 1013.4
20260509060914 70 61 1.0 2.0 0.28 0.05 0.05 92 1013.4
20260509060411 70 25 1.0 4.0 0.00 0.00 0.00 91 1013.5
20260509055905 69 282 2.0 2.0 0.00 0.00 0.00 91 1013.1
20260509055401 69 309 0.0 1.0 0.00 0.00 0.00 91 1012.7
20260509054858 69 29 0.0 1.0 0.00 0.00 0.00 91 1012.7
20260509054355 69 124 0.0 1.0 0.00 0.00 0.00 91 1013.0
20260509053853 69 37 0.0 0.0 0.00 0.00 0.00 91 1012.9
20260509053350 69 304 0.0 1.0 0.00 0.00 0.00 91 1013.1
20260509052849 69 44 0.0 1.0 0.00 0.00 0.00 91 1012.8
20260509052345 69 77 2.0 2.0 0.00 0.00 0.00 91 1012.6
20260509051844 69 35 0.0 1.0 0.00 0.00 0.00 91 1012.6
20260509051341 69 50 0.0 2.0 0.00 0.00 0.00 91 1012.5
20260509050837 69 174 0.0 0.0 0.00 0.00 0.00 91 1012.5
20260509050334 69 142 0.0 2.0 0.00 0.00 0.00 91 1012.3
20260509045831 69 79 1.0 2.0 0.00 0.01 0.01 91 1012.2
20260509045328 69 103 0.0 3.0 0.00 0.01 0.01 91 1012.5
20260509044826 69 104 0.0 2.0 0.00 0.01 0.01 91 1012.4
20260509044323 69 92 2.0 2.0 0.00 0.01 0.01 90 1012.4
20260509043819 69 88 1.0 3.0 0.00 0.01 0.01 90 1012.4
20260509043315 69 110 0.0 1.0 0.00 0.01 0.01 90 1012.5
20260509042811 69 89 1.0 2.0 0.00 0.01 0.01 90 1012.2
20260509042308 69 93 0.0 2.0 0.00 0.01 0.01 89 1012.2
20260509041805 69 99 3.0 5.0 0.00 0.01 0.01 89 1012.1
20260509041302 69 83 1.0 2.0 0.00 0.01 0.01 88 1012.2
20260509040800 69 98 2.0 3.0 0.00 0.01 0.01 88 1012.0
20260509040257 69 104 2.0 4.0 0.00 0.01 0.01 88 1012.2
20260509035754 69 110 2.0 4.0 0.00 0.01 0.01 87 1012.0
20260509035251 69 108 4.0 4.0 0.00 0.01 0.01 87 1012.0
20260509034747 69 94 1.0 6.0 0.00 0.01 0.01 86 1012.1
20260509034245 69 296 0.0 4.0 0.00 0.01 0.01 86 1012.1
20260509033742 69 82 2.0 4.0 0.00 0.01 0.01 86 1011.9
20260509033239 69 81 2.0 3.0 0.00 0.01 0.01 86 1011.9
20260509032736 69 95 2.0 2.0 0.00 0.01 0.01 86 1011.9
20260509032233 68 89 0.0 2.0 0.00 0.01 0.01 86 1011.9
20260509031730 68 89 0.0 2.0 0.00 0.01 0.01 87 1011.9
20260509031228 68 72 0.0 1.0 0.00 0.01 0.01 88 1011.7
20260509030726 68 89 0.0 1.0 0.00 0.01 0.01 88 1011.8
20260509030223 68 89 0.0 1.0 0.00 0.01 0.01 87 1011.5
20260509025720 67 55 0.0 1.0 0.00 0.01 0.01 87 1011.5
20260509025215 67 34 2.0 2.0 0.00 0.01 0.01 87 1011.5
20260509024710 67 34 0.0 1.0 0.00 0.01 0.01 86 1011.2
20260509024207 67 131 0.0 1.0 0.00 0.01 0.01 86 1011.0
20260509023704 67 62 0.0 1.0 0.00 0.01 0.01 85 1011.1
20260509023201 67 61 0.0 2.0 0.00 0.01 0.01 85 1010.9
20260509022657 67 109 1.0 2.0 0.00 0.01 0.01 85 1010.9
20260509022155 67 54 0.0 1.0 0.00 0.01 0.01 85 1010.9
20260509021652 67 80 0.0 1.0 0.00 0.01 0.01 83 1011.1
20260509021149 68 55 0.0 1.0 0.00 0.01 0.01 83 1010.8
20260509020648 68 127 0.0 1.0 0.00 0.01 0.01 83 1010.7
20260509020144 68 62 0.0 1.0 0.00 0.01 0.01 82 1010.7
20260509015643 68 46 0.0 2.0 0.00 0.01 0.01 81 1010.7
20260509015140 68 71 0.0 0.0 0.00 0.01 0.01 80 1010.5
20260509014637 69 60 1.0 2.0 0.00 0.01 0.01 80 1010.4
20260509014133 69 76 0.0 0.0 0.00 0.01 0.01 78 1010.5
20260509013630 70 66 0.0 0.0 0.00 0.01 0.01 77 1010.5
20260509013126 70 37 0.0 1.0 0.00 0.01 0.01 77 1010.5
20260509012623 71 66 0.0 1.0 0.00 0.01 0.01 76 1010.5
20260509012120 71 77 0.0 2.0 0.00 0.01 0.01 75 1010.6
20260509011618 71 85 0.0 2.0 0.00 0.01 0.01 75 1010.4
20260509011114 70 104 1.0 3.0 0.00 0.01 0.01 75 1010.6
20260509010612 71 44 0.0 0.0 0.00 0.01 0.01 74 1010.5
20260509010108 71 72 1.0 2.0 0.00 0.01 0.01 73 1010.5
20260509005606 71 161 1.0 2.0 0.00 0.01 0.01 72 1010.4
20260509005101 72 69 0.0 2.0 0.00 0.01 0.01 71 1010.3
20260509004558 72 73 0.0 2.0 0.00 0.01 0.01 70 1010.2
20260509004055 73 54 0.0 5.0 0.00 0.01 0.01 69 1010.0
20260509003554 73 164 2.0 3.0 0.00 0.01 0.01 69 1009.8
20260509003050 73 325 1.0 3.0 0.00 0.01 0.01 69 1009.8
20260509002548 74 82 2.0 3.0 0.00 0.01 0.01 69 1009.9
20260509002046 74 152 3.0 4.0 0.00 0.01 0.01 68 1009.8
20260509001542 75 103 3.0 5.0 0.00 0.01 0.01 68 1009.6
20260509001038 75 26 0.0 6.0 0.00 0.01 0.01 68 1009.3
20260509000537 74 224 0.0 3.0 0.00 0.01 0.01 69 1009.4
20260509000033 74 10 1.0 4.0 0.00 0.01 0.01 68 1009.2
20260508235531 75 76 2.0 5.0 0.00 0.01 0.01 66 1009.3
20260508235026 75 88 2.0 4.0 0.00 0.01 0.01 64 1009.5
20260508234524 76 101 1.0 3.0 0.00 0.01 0.01 62 1010.3
20260508234021 77 163 1.0 1.0 0.00 0.01 0.01 60 1010.4
20260508233520 78 121 1.0 6.0 0.00 0.01 0.01 57 1010.6
20260508233017 79 176 0.0 2.0 0.00 0.01 0.01 56 1010.4
20260508232514 78 98 0.0 2.0 0.00 0.01 0.01 58 1010.5
20260508232011 78 76 5.0 6.0 0.00 0.01 0.01 56 1010.6
20260508231508 78 119 2.0 5.0 0.00 0.01 0.01 57 1010.4
20260508231005 77 113 2.0 3.0 0.00 0.01 0.01 59 1010.7
20260508230502 77 84 0.0 2.0 0.00 0.01 0.01 57 1011.3
20260508225958 78 112 3.0 3.0 0.00 0.01 0.01 58 1011.5
20260508225456 78 131 0.0 2.0 0.00 0.01 0.01 57 1011.4
20260508224953 77 44 0.0 2.0 0.00 0.01 0.01 60 1011.3
20260508224450 77 133 0.0 1.0 0.00 0.01 0.01 58 1011.6